| time (UTC) | temp C | wind direction | speed KPH | gust KPH | rain 1hr cm | rain 24hr cm | rain mn cm | humidity % | barometer mb |
| 20260506044524 | 5 | 300 | 8.0 | 22.5 | 0.00 | 0.08 | 0.08 | 55 | 1009.5 |
| 20260506043010 | 6 | 266 | 6.4 | 25.7 | 0.00 | 0.08 | 0.08 | 57 | 1009.3 |
| 20260506041507 | 6 | 273 | 8.0 | 0.0 | 0.00 | 0.00 | 0.08 | 56 | 1009.0 |
| 20260506040005 | 6 | 271 | 3.2 | 33.8 | 0.00 | 0.08 | 0.08 | 57 | 1008.8 |
| 20260506034504 | 6 | 309 | 4.8 | 22.5 | 0.00 | 0.08 | 0.08 | 59 | 1008.5 |
| 20260506033004 | 6 | 300 | 8.0 | 24.1 | 0.00 | 0.08 | 0.08 | 62 | 1008.5 |
| 20260506031506 | 6 | 285 | 6.4 | 16.1 | 0.00 | 0.08 | 0.08 | 64 | 1008.3 |
| 20260506030002 | 6 | 345 | 3.2 | 17.7 | 0.00 | 0.08 | 0.08 | 63 | 1008.3 |
| 20260506024601 | 6 | 318 | 3.2 | 19.3 | 0.00 | 0.08 | 0.08 | 63 | 1008.0 |
| 20260506024504 | 6 | 286 | 4.8 | 19.3 | 0.00 | 0.08 | 0.08 | 63 | 1008.0 |
| 20260506023100 | 6 | 328 | 4.8 | 22.5 | 0.00 | 0.08 | 0.08 | 63 | 1007.8 |
| 20260506021608 | 6 | 227 | 4.8 | 17.7 | 0.00 | 0.08 | 0.08 | 62 | 1007.7 |
| 20260506020058 | 6 | 291 | 6.4 | 30.6 | 0.00 | 0.08 | 0.08 | 64 | 1007.5 |
| 20260506014612 | 6 | 217 | 6.4 | 30.6 | 0.00 | 0.08 | 0.08 | 63 | 1007.3 |
| 20260506013057 | 6 | 283 | 9.7 | 22.5 | 0.00 | 0.08 | 0.08 | 64 | 1007.0 |
| 20260506011556 | 6 | 261 | 8.0 | 24.1 | 0.00 | 0.08 | 0.08 | 64 | 1007.0 |
| 20260506010104 | 6 | 269 | 6.4 | 20.9 | 0.00 | 0.08 | 0.08 | 64 | 1006.6 |
| 20260506004555 | 6 | 276 | 4.8 | 30.6 | 0.00 | 0.08 | 0.08 | 65 | 1006.5 |
| 20260506003054 | 6 | 288 | 12.9 | 32.2 | 0.00 | 0.08 | 0.08 | 65 | 1006.3 |
| 20260506001600 | 6 | 276 | 12.9 | 37.0 | 0.00 | 0.08 | 0.08 | 68 | 1006.3 |
| 20260506000059 | 6 | 262 | 8.0 | 24.1 | 0.00 | 0.08 | 0.08 | 70 | 1006.2 |
| 20260505234551 | 6 | 309 | 6.4 | 30.6 | 0.00 | 0.08 | 0.08 | 71 | 1006.1 |
| 20260505233101 | 6 | 255 | 8.0 | 32.2 | 0.00 | 0.08 | 0.08 | 74 | 1006.1 |
| 20260505231552 | 6 | 291 | 12.9 | 27.4 | 0.00 | 0.08 | 0.08 | 73 | 1006.1 |
| 20260505230051 | 6 | 332 | 9.7 | 32.2 | 0.00 | 0.08 | 0.08 | 74 | 1006.0 |
| 20260505224549 | 6 | 325 | 11.3 | 22.5 | 0.00 | 0.08 | 0.08 | 76 | 1006.2 |
| 20260505223050 | 5 | 290 | 6.4 | 27.4 | 0.00 | 0.08 | 0.08 | 79 | 1006.2 |
| 20260505221547 | 5 | 299 | 12.9 | 35.4 | 0.00 | 0.08 | 0.08 | 81 | 1006.2 |
| 20260505220046 | 5 | 338 | 8.0 | 25.7 | 0.00 | 0.08 | 0.08 | 82 | 1006.5 |
| 20260505214545 | 5 | 297 | 8.0 | 19.3 | 0.00 | 0.08 | 0.08 | 84 | 1006.6 |
| 20260505213047 | 5 | 262 | 9.7 | 41.8 | 0.00 | 0.08 | 0.08 | 86 | 1006.6 |
| 20260505211545 | 5 | 229 | 6.4 | 24.1 | 0.00 | 0.08 | 0.08 | 90 | 1006.7 |
| 20260505210042 | 4 | 249 | 8.0 | 38.6 | 0.00 | 0.08 | 0.08 | 91 | 1007.0 |
| 20260505204542 | 3 | 302 | 6.4 | 20.9 | 0.00 | 0.08 | 0.08 | 92 | 1007.1 |
| 20260505203048 | 3 | 301 | 4.8 | 16.1 | 0.03 | 0.08 | 0.08 | 93 | 1007.1 |
| 20260505201542 | 3 | 268 | 4.8 | 19.3 | 0.05 | 0.08 | 0.08 | 92 | 1007.3 |
| 20260505200039 | 3 | 311 | 3.2 | 22.5 | 0.08 | 0.08 | 0.08 | 91 | 1007.1 |
| 20260505194637 | 3 | 330 | 6.4 | 22.5 | 0.08 | 0.08 | 0.08 | 91 | 1007.0 |
| 20260505193049 | 3 | 322 | 8.0 | 32.2 | 0.05 | 0.05 | 0.05 | 89 | 1006.9 |
| 20260505191536 | 3 | 340 | 8.0 | 32.2 | 0.03 | 0.03 | 0.03 | 86 | 1006.7 |
| 20260505190036 | 3 | 346 | 6.4 | 20.9 | 0.00 | 0.00 | 0.00 | 83 | 1006.6 |
| 20260505184527 | 5 | 326 | 12.9 | 25.7 | 0.00 | 0.00 | 0.00 | 74 | 1006.8 |
| 20260505183023 | 5 | 312 | 8.0 | 17.7 | 0.00 | 0.00 | 0.00 | 70 | 1006.8 |
| 20260505181520 | 5 | 325 | 8.0 | 33.8 | 0.00 | 0.00 | 0.00 | 68 | 1006.8 |
| 20260505180022 | 5 | 323 | 3.2 | 24.1 | 0.00 | 0.00 | 0.00 | 66 | 1007.0 |
| 20260505174516 | 6 | 293 | 9.7 | 32.2 | 0.00 | 0.00 | 0.00 | 66 | 1006.9 |
| 20260505173015 | 6 | 331 | 11.3 | 25.7 | 0.00 | 0.00 | 0.00 | 64 | 1007.0 |
| 20260505171514 | 5 | 348 | 9.7 | 20.9 | 0.00 | 0.00 | 0.00 | 62 | 1006.7 |
| 20260505170016 | 5 | 338 | 6.4 | 17.7 | 0.00 | 0.00 | 0.00 | 63 | 1006.9 |
| 20260505164512 | 5 | 314 | 9.7 | 16.1 | 0.00 | 0.00 | 0.00 | 62 | 1006.8 |
| 20260505163012 | 5 | 340 | 9.7 | 24.1 | 0.00 | 0.00 | 0.00 | 60 | 1006.7 |
| 20260505161513 | 5 | 352 | 8.0 | 19.3 | 0.00 | 0.00 | 0.00 | 59 | 1007.0 |
| 20260505153009 | 5 | 292 | 3.2 | 17.7 | 0.00 | 0.00 | 0.00 | 61 | 1006.9 |
| 20260505151507 | 5 | 293 | 9.7 | 22.5 | 0.00 | 0.00 | 0.00 | 63 | 1006.6 |
| 20260505124557 | 5 | 304 | 6.4 | 16.1 | 0.00 | 0.00 | 0.00 | 61 | 1006.4 |
| 20260505123104 | 5 | 339 | 8.0 | 16.1 | 0.00 | 0.00 | 0.00 | 61 | 1006.5 |
| 20260505121549 | 5 | 311 | 4.8 | 20.9 | 0.00 | 0.00 | 0.00 | 61 | 1006.5 |
| 20260505120055 | 5 | 290 | 9.7 | 24.1 | 0.00 | 0.00 | 0.00 | 61 | 1006.1 |
| 20260505114549 | 5 | 302 | 6.4 | 14.5 | 0.00 | 0.00 | 0.00 | 60 | 1006.3 |
| 20260505113050 | 5 | 309 | 6.4 | 22.5 | 0.00 | 0.00 | 0.00 | 60 | 1006.3 |
| 20260505111541 | 5 | 311 | 6.4 | 12.9 | 0.00 | 0.00 | 0.00 | 60 | 1006.3 |
| 20260505101535 | 6 | 339 | 9.7 | 19.3 | 0.00 | 0.00 | 0.00 | 57 | 1006.4 |
| 20260505100032 | 6 | 340 | 8.0 | 24.1 | 0.00 | 0.00 | 0.00 | 56 | 1006.4 |
| 20260505094526 | 6 | 356 | 8.0 | 22.5 | 0.00 | 0.00 | 0.00 | 54 | 1006.7 |
| 20260505093024 | 7 | 318 | 9.7 | 19.3 | 0.00 | 0.00 | 0.00 | 53 | 1007.2 |
| 20260505091622 | 7 | 338 | 8.0 | 20.9 | 0.00 | 0.00 | 0.00 | 51 | 1007.6 |
| 20260505090019 | 7 | 323 | 8.0 | 22.5 | 0.00 | 0.00 | 0.00 | 50 | 1007.5 |
| 20260505084519 | 7 | 345 | 6.4 | 19.3 | 0.00 | 0.00 | 0.00 | 49 | 1007.8 |
| 20260505083023 | 7 | 312 | 6.4 | 19.3 | 0.00 | 0.00 | 0.00 | 49 | 1007.6 |
| 20260505081515 | 7 | 300 | 9.7 | 19.3 | 0.00 | 0.00 | 0.00 | 49 | 1007.9 |
| 20260505080019 | 7 | 327 | 11.3 | 20.9 | 0.00 | 0.00 | 0.00 | 50 | 1008.2 |
| 20260505074510 | 7 | 341 | 6.4 | 19.3 | 0.00 | 0.00 | 0.00 | 50 | 1008.0 |
| 20260505073022 | 7 | 255 | 6.4 | 12.9 | 0.00 | 0.00 | 0.00 | 50 | 1007.7 |
| 20260505071507 | 7 | 311 | 6.4 | 16.1 | 0.00 | 0.00 | 0.00 | 50 | 1008.1 |
| 20260505070006 | 7 | 301 | 6.4 | 25.7 | 0.00 | 0.00 | 0.00 | 49 | 1007.8 |
| 20260505064503 | 7 | 336 | 9.7 | 16.1 | 0.00 | 0.00 | 0.00 | 50 | 1007.9 |
| 20260505063101 | 7 | 290 | 6.4 | 16.1 | 0.00 | 0.00 | 0.00 | 48 | 1008.3 |
| 20260505061600 | 7 | 307 | 4.8 | 16.1 | 0.00 | 0.00 | 0.00 | 46 | 1008.2 |